This is the latest recevied weather packets stored in our database for station/object OK0EK-11. If no packets are shown the sender has not sent any weather packets the latest 10 day(s).
| Time | Temp. | Humidity | Pressure | Rain* | Wind** | Luminosity | Snow |
|---|---|---|---|---|---|---|---|
| 1777987044 | 19.44° C | 38% | 1011.3 hPa | - | - | - | - |
| 1777986451 | 18.89° C | 38% | 1011.3 hPa | - | - | - | - |
| 1777986444 | 18.89° C | 38% | 1011.3 hPa | - | - | - | - |
| 1777986343 | 19.44° C | 38% | 1011.6 hPa | - | - | - | - |
| 1777985844 | 19.44° C | 38% | 1011.6 hPa | - | - | - | - |
| 1777985244 | 18.89° C | 39% | 1011.1 hPa | - | - | - | - |
| 1777984645 | 19.44° C | 39% | 1011.5 hPa | - | - | - | - |
| 1777984045 | 18.33° C | 39% | 1011.8 hPa | - | - | - | - |
| 1777983445 | 18.33° C | 39% | 1011.7 hPa | - | - | - | - |
| 1777982845 | 18.89° C | 38% | 1011.7 hPa | - | - | - | - |
| 1777982246 | 18.89° C | 38% | 1012 hPa | - | - | - | - |
| 1777981646 | 18.33° C | 40% | 1011.9 hPa | - | - | - | - |
| 1777981047 | 17.78° C | 41% | 1011.8 hPa | - | - | - | - |
| 1777980448 | 17.78° C | 40% | 1012 hPa | - | - | - | - |
| 1777979848 | 17.78° C | 40% | 1012.2 hPa | - | - | - | - |
| 1777979249 | 17.78° C | 40% | 1012 hPa | - | - | - | - |
| 1777978650 | 17.78° C | 39% | 1012.3 hPa | - | - | - | - |
| 1777978050 | 17.22° C | 39% | 1012.2 hPa | - | - | - | - |
| 1777977519 | 17.22° C | 40% | 1012.1 hPa | - | - | - | - |
| 1777977451 | 17.22° C | 40% | 1012.1 hPa | - | - | - | - |
| 1777976852 | 17.22° C | 40% | 1012.3 hPa | - | - | - | - |
| 1777976665 | 17.22° C | 39% | 1012.2 hPa | - | - | - | - |
| 1777976252 | 17.22° C | 39% | 1012.2 hPa | - | - | - | - |
| 1777975652 | 17.22° C | 40% | 1011.9 hPa | - | - | - | - |
| 1777975053 | 16.67° C | 43% | 1012.4 hPa | - | - | - | - |
* Rain since midnight (hover to see other rain measurements)
** Current wind speed in m/s (hover to see current wind gust speed)